Regional Weather Roundup
Issued by NWS

Home | Current Version | Previous Version | Graphics & Text | Print | Product List | Glossary On
Versions: 1 2 3 4 5 6 7 8 9 10 11 12 13 14 15 16 17 18 19 20 21 22 23 24 25 26 27 28 29 30 31 32 33 34 35 36 37 38 39 40 41 42 43 44 45 46 47 48 49 50
000
ASUS43 KFSD 230102
RWRSD

WEATHER ROUNDUP FOR SOUTH DAKOTA
NATIONAL WEATHER SERVICE SIOUX FALLS SD
700 PM CST MON DEC 22 2014

NOTE: "FAIR" INDICATES FEW OR NO CLOUDS BELOW 12,000 FEET WITH NO
SIGNIFICANT WEATHER AND/OR OBSTRUCTIONS TO VISIBILITY.


SDZ001>005-009-010-012>017-230200-
NORTHWEST AND NORTH CENTRAL SOUTH DAKOTA

CITY           SKY/WX    TMP DP  RH WIND       PRES   REMARKS
BUFFALO          N/A     26  22  84 NW30G40   29.63R WCI  10
FAITH            N/A     25  21  85 NW28G36   29.62R WCI   9
MOBRIDGE       LGT SNOW  33  30  88 N21       29.54R FOG     WCI  21
$$

SDZ012>016-024>037-041>051-057-063-072>074-230200-
SOUTHWEST AND SOUTH CENTRAL SOUTH DAKOTA

CITY           SKY/WX    TMP DP  RH WIND       PRES   REMARKS
RAPID CTY ARPT LGT SNOW  31  26  82 NW44G53   29.61R WCI  14
PIERRE         LGT SNOW  30  28  92 NW23G30   29.53R FOG     WCI  17
CUSTER         CLOUDY    27  16  63 NW14G37   29.55R WCI  16
ELLSWORTH AFB  LGT SNOW  31  28  89 N36G46    29.62R BLWGSNOWWCI  15
PHILIP         MIX PCPN  29  23  78 NW31G39   29.61R WCI  13
PINE RIDGE     LGT SNOW  32  26  78 N22G36    29.64R WCI  19
WINNER         LGT SNOW  31  29  92 NW22G30   29.53R FOG     WCI  18
$$

SDZ004>011-016>023-039-040-230200-
NORTHEAST SOUTH DAKOTA

CITY           SKY/WX    TMP DP  RH WIND       PRES   REMARKS
ABERDEEN       LGT RAIN  37  35  92 NE13      29.49R
WATERTOWN      CLOUDY    36  35  96 E9        29.46R FOG
$$

SDZ017-020-022-023-036>040-048>070-230200-
SOUTHEAST SOUTH DAKOTA

CITY           SKY/WX    TMP DP  RH WIND       PRES   REMARKS
SIOUX FALLS    DRIZZLE   36  35  96 NW3       29.45R
HURON          CLOUDY    33  32  96 CALM      29.48R
MITCHELL       CLOUDY    34  33  96 NW9       29.48R FOG     WCI  27
YANKTON        CLOUDY    36  34  93 NW13      29.47R
$$

ABBREVIATIONS USED IN REMARKS
   TC - TEMPERATURE IN CELSIUS
  WCI - WIND CHILL INDEX
   HX - HEAT INDEX
  VSB - VISIBILITY



USA.gov is the U.S. government's official web portal to all federal, state and local government web resources and services.